Tracking 35275 objects as of 7-Sep-2026
HD Live streaming from Space Station
objects crossing your sky now

COSMOS 1375 DEB

Track COSMOS 1375 DEB now!
10-day predictions


NORAD ID: 17794
Int'l Code: 1982-055AL
Launch date: June 6, 1982
Source: Commonwealth of Independent States (former USSR) (CIS)
Launch site: PLESETSK MISSILE AND SPACE COMPLEX (PKMTR)

Note: This is SATELLITE DEBRIS
Your satellite tracking list
Your tracking list is empty




NASA's NSSDC Master Catalog

Two Line Element Set (TLE):
1 17794U 82055AL  26249.84644846  .00001058  00000-0  73791-3 0  9999
2 17794  65.8158  54.2582 0052778 263.9109  95.5952 14.02195313 63696
Source of the keplerian elements: AFSPC